Voltar ao catálogo

DELTA 1 DEB

AtivoPO
NORAD 21325·DEBRIS·🇺🇸 United States

Lançado Jun 12, 1975 de Vandenberg Space Force Base

Loading…

Próximas Passagens (próximas 24 horas)

TLE

AtualizadoSource: Space-Track

Época: Sep 14, 2026, 08:05 UTC

1 21325U 75052AT  26257.33685044  .00002622  00000-0  14856-2 0  9995
2 21325  99.7478 270.7600 0092953 244.3228 126.4600 14.08910283776076

Acompanhe DELTA 1 DEB em tempo real com AllMySat

Download on the App Store